{"data":{"norad_id":67333,"epoch":"2026-09-18T03:47:11.290848Z","epoch_age_seconds":277727,"freshness":"STALE","line1":"1 67333U 26002AE  26261.15776957  .00009663  00000+0  36014-3 0  9996","line2":"2 67333  43.0019 318.3627 0001527 260.1100  99.9580 15.27584891 40572","mean_motion":15.27584891,"eccentricity":0.0001527,"inclination_deg":43.0019,"raan_deg":318.3627,"arg_perigee_deg":260.11,"mean_anomaly_deg":99.958,"bstar":0.00036014,"rev_number":4057,"period_min":94.26644689169,"perigee_km":481.98674978468,"apogee_km":484.08215154572,"semimajor_km":6861.1714506652,"source":"CELESTRAK","updated_at":"2026-09-20T09:00:43.509933Z"}}